Winchester, TN

4:35 AM CDT on July 27, 2017 (GMT -0500)
Winchester Municipal

Weather History for KBGF - August, 2014

Change the Weather History Date:

Saturday, August 9, 2014

  Actual Average (KTHA) Record (KTHA)
Temperature  
Mean Temperature 78 °F -  
Max Temperature 86 °F 87 °F 91 °F (2015)
Min Temperature 69 °F 66 °F 66 °F (2015)
Cooling Degree Days 12    
Growing Degree Days 28 (Base 50)    
Moisture  
Dew Point 71 °F    
Average Humidity 83    
Maximum Humidity 100    
Minimum Humidity 66    
Precipitation  
Precipitation 0.00 in - - ()
Sea Level Pressure  
Sea Level Pressure 30.02 in    
Wind  
Wind Speed 4 mph (SSW)    
Max Wind Speed 9 mph    
Max Gust Speed -    
Visibility 10 miles    
Events      
Averages and records for this station are not official NWS values.
T = Trace of Precipitation, MM = Missing Value Source: NWS Daily Summary

Daily Weather History Graph

Daily Weather History Graph

Search for Another Location

Airport or City:

Trip Planner

Search our weather history database for the weather conditions in past years. The results will help you decide how hot, cold, wet, or windy it might be!

Date:

Astronomy

Aug. 09, 2014 Rise Set
Actual Time 6:59 AM EDT 8:39 PM EDT
Civil Twilight 6:32 AM EDT 9:06 PM EDT
Nautical Twilight 5:59 AM EDT 9:39 PM EDT
Astronomical Twilight 5:24 AM EDT 10:14 PM EDT
Moon 7:41 PM EDT (8/9) 5:39 AM EDT (8/9)
Length of Visible Light 14h 34m
Length of Day
13h 40m
Waxing Gibbous, 98% of the Moon is Illuminated
Aug 9
Waxing Gibbous
Aug 10
Full
Aug 17
Last Quarter
Aug 25
New
Sep 2
First Quarter

Hourly Weather History & Observations

Time (EDT) Temp. Heat Index Dew Point Humidity Pressure Visibility Wind Dir Wind Speed Gust Speed Precip Events Conditions
12:15 AM 71.6 °F - 69.8 °F 94% 30.01 in 10.0 mi ESE 5.8 mph - N/A   Clear
12:35 AM 71.6 °F - 69.8 °F 94% 30.00 in 10.0 mi ESE 6.9 mph - N/A   Clear
1:55 AM 71.6 °F - 69.8 °F 94% 30.01 in 10.0 mi SSE 5.8 mph - N/A   Clear
2:15 AM 71.6 °F - 69.8 °F 94% 30.01 in 10.0 mi Calm Calm - N/A   Clear
2:35 AM 69.8 °F - 69.8 °F 100% 30.00 in 8.0 mi SE 4.6 mph - N/A   Clear
2:55 AM 69.8 °F - 69.8 °F 100% 30.01 in 7.0 mi Calm Calm - N/A   Partly Cloudy
3:15 AM 71.6 °F - 69.8 °F 94% 30.01 in 9.0 mi Calm Calm - N/A   Mostly Cloudy
3:35 AM 71.6 °F - 69.8 °F 94% 30.01 in 10.0 mi SSE 6.9 mph - N/A   Scattered Clouds
3:55 AM 71.6 °F - 69.8 °F 94% 30.00 in 10.0 mi SE 4.6 mph - N/A   Scattered Clouds
4:15 AM 71.6 °F - 69.8 °F 94% 30.00 in 10.0 mi SE 4.6 mph - N/A   Clear
4:35 AM 71.6 °F - 69.8 °F 94% 30.01 in 10.0 mi SSE 5.8 mph - N/A   Partly Cloudy
4:55 AM 71.6 °F - 69.8 °F 94% 30.02 in 10.0 mi SSE 6.9 mph - N/A   Mostly Cloudy
5:15 AM 71.6 °F - 69.8 °F 94% 30.02 in 10.0 mi SSE 5.8 mph - N/A   Overcast
5:35 AM 71.6 °F - 69.8 °F 94% 30.02 in 10.0 mi SSE 5.8 mph - N/A   Mostly Cloudy
5:55 AM 71.6 °F - 69.8 °F 94% 30.03 in 10.0 mi South 3.5 mph - N/A   Mostly Cloudy
6:15 AM 71.6 °F - 69.8 °F 94% 30.03 in 10.0 mi SSE 5.8 mph - N/A   Overcast
6:35 AM 71.6 °F - 69.8 °F 94% 30.03 in 10.0 mi SSE 4.6 mph - N/A   Overcast
6:55 AM 71.6 °F - 69.8 °F 94% 30.03 in 10.0 mi SSE 5.8 mph - N/A   Overcast
7:15 AM 71.6 °F - 69.8 °F 94% 30.04 in 10.0 mi SSE 4.6 mph - N/A   Overcast
7:35 AM 71.6 °F - 69.8 °F 94% 30.05 in 10.0 mi Calm Calm - N/A   Overcast
7:55 AM 71.6 °F - 69.8 °F 94% 30.04 in 10.0 mi Calm Calm - N/A   Overcast
8:15 AM 73.4 °F - 69.8 °F 88% 30.04 in 10.0 mi Calm Calm - N/A   Overcast
8:35 AM 73.4 °F - 69.8 °F 88% 30.04 in 10.0 mi SSE 3.5 mph - N/A   Overcast
8:55 AM 75.2 °F - 69.8 °F 83% 30.04 in 10.0 mi SSE 3.5 mph - N/A   Mostly Cloudy
9:15 AM 75.2 °F - 69.8 °F 83% 30.04 in 10.0 mi SSE 4.6 mph - N/A   Partly Cloudy
9:35 AM 77.0 °F - 69.8 °F 78% 30.05 in 10.0 mi Calm Calm - N/A   Mostly Cloudy
9:55 AM 78.8 °F - 71.6 °F 78% 30.05 in 10.0 mi Calm Calm - N/A   Mostly Cloudy
10:15 AM 80.6 °F 84.6 °F 71.6 °F 74% 30.05 in 10.0 mi SW 4.6 mph - N/A   Mostly Cloudy
10:35 AM 80.6 °F 85.4 °F 73.4 °F 79% 30.05 in 10.0 mi SW 6.9 mph - N/A   Mostly Cloudy
10:55 AM 80.6 °F 84.6 °F 71.6 °F 74% 30.06 in 10.0 mi SW 5.8 mph - N/A   Overcast
11:15 AM 80.6 °F 84.6 °F 71.6 °F 74% 30.06 in 10.0 mi WSW 6.9 mph - N/A   Overcast
11:35 AM 80.6 °F 84.6 °F 71.6 °F 74% 30.06 in 10.0 mi SSW 3.5 mph - N/A   Overcast
11:55 AM 80.6 °F 84.6 °F 71.6 °F 74% 30.07 in 10.0 mi WSW 3.5 mph - N/A   Overcast
12:15 PM 80.6 °F 84.6 °F 71.6 °F 74% 30.07 in 10.0 mi West 3.5 mph - N/A   Overcast
12:35 PM 82.4 °F 87.2 °F 71.6 °F 70% 30.06 in 10.0 mi SW 4.6 mph - N/A   Mostly Cloudy
1:15 PM 82.4 °F 88.2 °F 73.4 °F 74% 30.04 in 10.0 mi Variable 5.8 mph - N/A   Overcast
1:35 PM 82.4 °F 88.2 °F 73.4 °F 74% 30.03 in 10.0 mi WSW 4.6 mph - N/A   Overcast
1:55 PM 84.2 °F 90.9 °F 73.4 °F 70% 30.02 in 10.0 mi SSW 5.8 mph - N/A   Mostly Cloudy
2:15 PM 84.2 °F 90.9 °F 73.4 °F 70% 30.01 in 10.0 mi WSW 6.9 mph - N/A   Mostly Cloudy
2:35 PM 86.0 °F 93.4 °F 73.4 °F 66% 30.01 in 10.0 mi SW 4.6 mph - N/A   Scattered Clouds
2:55 PM 84.2 °F 90.9 °F 73.4 °F 70% 30.00 in 10.0 mi Calm Calm - N/A   Scattered Clouds
3:15 PM 86.0 °F 93.4 °F 73.4 °F 66% 29.99 in 10.0 mi WSW 5.8 mph - N/A   Partly Cloudy
3:35 PM 84.2 °F 90.9 °F 73.4 °F 70% 29.98 in 10.0 mi West 4.6 mph - N/A   Partly Cloudy
3:55 PM 84.2 °F 90.9 °F 73.4 °F 70% 29.98 in 10.0 mi West 6.9 mph - N/A   Scattered Clouds
4:15 PM 82.4 °F 87.2 °F 71.6 °F 70% 29.98 in 10.0 mi WSW 9.2 mph - N/A   Mostly Cloudy
4:55 PM 82.4 °F 88.2 °F 73.4 °F 74% 29.97 in 10.0 mi WSW 6.9 mph - N/A   Scattered Clouds
5:15 PM 82.4 °F 88.2 °F 73.4 °F 74% 29.97 in 10.0 mi Variable 4.6 mph - N/A   Partly Cloudy
5:55 PM 82.4 °F 88.2 °F 73.4 °F 74% 29.97 in 10.0 mi WSW 6.9 mph - N/A   Partly Cloudy
6:15 PM 82.4 °F 88.2 °F 73.4 °F 74% 29.97 in 10.0 mi WSW 5.8 mph - N/A   Clear
6:35 PM 82.4 °F 88.2 °F 73.4 °F 74% 29.96 in 10.0 mi SW 8.1 mph - N/A   Clear
6:55 PM 82.4 °F 88.2 °F 73.4 °F 74% 29.96 in 10.0 mi West 4.6 mph - N/A   Clear
7:15 PM 82.4 °F 88.2 °F 73.4 °F 74% 29.96 in 10.0 mi SW 8.1 mph - N/A   Clear
7:35 PM 80.6 °F 84.6 °F 71.6 °F 74% 29.97 in 10.0 mi WSW 6.9 mph - N/A   Clear
7:55 PM 80.6 °F 84.6 °F 71.6 °F 74% 29.99 in 10.0 mi WSW 5.8 mph - N/A   Clear
8:15 PM 78.8 °F - 71.6 °F 78% 29.99 in 10.0 mi WSW 5.8 mph - N/A   Clear
8:35 PM 78.8 °F - 71.6 °F 78% 29.99 in 10.0 mi SW 4.6 mph - N/A   Clear
8:55 PM 77.0 °F - 71.6 °F 83% 30.00 in 10.0 mi Calm Calm - N/A   Clear
9:15 PM 75.2 °F - 71.6 °F 89% 30.01 in 10.0 mi Calm Calm - N/A   Clear
9:55 PM 75.2 °F - 71.6 °F 89% 30.01 in 10.0 mi Calm Calm - N/A   Clear
10:15 PM 75.2 °F - 71.6 °F 89% 30.01 in 10.0 mi Calm Calm - N/A   Clear
10:35 PM 75.2 °F - 71.6 °F 89% 30.03 in 10.0 mi Calm Calm - N/A   Mostly Cloudy
10:55 PM 73.4 °F - 71.6 °F 94% 30.03 in 10.0 mi Calm Calm - N/A   Mostly Cloudy
11:35 PM 73.4 °F - 71.6 °F 94% 30.02 in 10.0 mi Calm Calm - N/A   Partly Cloudy